Showing default

DIWATA 2B, 43678

Orbit data source: Space-Track

DIWATA 2B, 43678 is a Filipino payload satellite in SSO that was launched on Mon, 29 Oct 2018 UTC via an H-IIA 202 launch vehicle from the Tanegashima Space Center (TNSTA). Payload-class satellites include a variety of spacecraft equipped with specific instruments for various scientific and technological missions. These include communications satellites like Starlink; space stations such as the ISS; scientific satellites like the Hubble; Earth observation satellites from companies like Planet Labs, Umbra, and HawkEye 360; GPS; miniature CubeSats for education and research; and military/defense satellites.

Loading next visibility...
Identifier
43678, 2018-084H
Orbit
SSO
Country
Flag of RPRP
Related business
Manufacturer
UPD/HOKK
Mission
Operational Civil Imaging
Bus & Motor
DIWATA, Unknown motor
Mass
56 kg wet, 56 kg dry
Launch date (UTC)
2018-10-29 (7 years ago)
Launch vehicle
H-IIA 202
Launch site
Tanegashima Space Center (TNSTA)
Object type
Payload
Rocket body
Debris
Shape & HBR
Box + 2 Pan, 0.8 m
Radar Cross Section
0.514 m², Medium (>0.1 m² and < 1m²)

Expand to show TLE details & history
Last TLE update: 9 hours ago

TLE from 9 hours ago
0 DIWATA 2B
1 43678U 18084H   25308.94454751  .00002099  00000-0  17772-3 0  9993
2 43678  98.1086 130.8874 0007956 139.7689 220.4123 14.99164463382603
Epoch: 2025-11-04T22:40Z
TLE epoch observation values (Epoch: 2025-11-04T22:40:08.904Z)
Latitude
-0.00004°
Longitude
106.426°
Altitude
576.729 km
Speed
7.57 km/s
True Right ascension
08h 43m 32s
True Declination
0° 00' 00"
Sunlit
Object was in daylight at epoch
Visualization orbit readout
Latitude
Unknown
Longitude
Unknown
Altitude
Unknown
Speed
Unknown
Apparent Right ascension
Unknown
Apparent Declination
Unknown
Sunlit
N/A
Visualization observer readout
Local Sidereal Time
04:07:26
Azimuth
Unknown
Elevation
Unknown
Doppler factor
Unknown
Orbital elements
Apogee altitude
572.027 km
Perigee altitude
560.976 km
Semi-major axis
6,944.638 km
Eccentricity
0.0008
Inclination
98.1086°
RAAN
130.8874°
Arg. of periapsis
139.7689°
True anomaly
220.35324°
Mean anomaly
220.4123°
Eccentric anomaly
220.38277°
Mean motion
3.75032 °/min
Orbital period
95.99 mins
BSTAR
0.00017772
Loading maneuver chart data...
Computing Atmospheric mass density...
Loading historical data...
Loading historical data...
Loading historical data...
Loading historical data...
Loading historical data...
Loading historical data...
Loading historical data...

Documentation

Showing up to 5 results
|